East Ryegate, Vermont
Current Conditions -  °F | °C
As of 11:34 AM on Friday 19 Dec 2014 (Local Time) from KMPV Reporting Station
Overcast Overcast  
Wind Chill: 13°   Ceiling: 1400
Heat Index: 23°   Visibility: 10mi
Dew Point: 18°   Wind: 9mph
Humidity: 81%   Direction: 320°NW
Pressure: 30.02"   Gusts: NA
Location:  44.2°N, 72.06°W
Report Text: KMPV 191634Z AUTO 32008KT 10SM OVC014 M05/M08 A3002 RMK AO2 T10501078
Loading
Personal Weather Stations






























Interactive Weather Map New forecast layout! Learn more

10-Day Weather Forecast

Advertisements
Track Severe Weather on mobile